Location: Eisingen in Unterfranken
(49.7591°N, 9.8347°E)
Time: 02:55:07
(UTC+01:00)

N. Korean satellite - Pass Details

Date: 11 December 2022
Orbit: 408 x 444 km, 97.3° (Epoch: 28 January)

Event Time Altitude Azimuth Distance (km) Brightness Sun altitude
Rises 06:03:56 0° 9° (N) 2,498 10.1 -18.9°
Reaches altitude 10° 06:06:01 10° 6° (N) 1,610 9.1 -18.6°
Maximum altitude 06:09:25 58° 287° (WNW) 533 6.4 -18.0°
Drops below altitude 10° 06:12:43 10° 207° (SSW) 1,566 9.0 -17.5°
Sets 06:14:44 0° 204° (SSW) 2,421 10.0 -17.2°
